Starlink 11679

operational
NORAD ID: 64129 Int'l Des: 2025-111 Owner: SPXS Country: US Constellation: starlink
LEOCIRCULAR

Über Starlink 11679

Beschreibung wird geladen...

Live-Position

3D-Globus wird geladen...

Nächste Überflüge

Höhenverlauf

Altitude vs Time

uPlot chart will show altitude changes over time

Zweizeiliger Elementsatz

1 64129U 25111G 25260.56191339 .00347468 00000-0 25702-2 0 9994
2 64129 42.9984 297.1365 0002142 280.7205 79.3422 15.71112472 19419
Epoch: 17. Sept. 2025 • Age: 36 hours

Aktueller Status

Höhe 355.5 km
Geschwindigkeit 7.70 km/s
Subsatellitenpunkt -17.70°S, 119.87°W
Startdatum 24. Mai 2025
Alter 0.3 years
Typ internet

Technische Details

Klassifizierung Payload
Masse 960.00 kg
Trockenmasse 910.00 kg
Gesamtmasse 960.00 kg
Länge 0.30 m
Durchmesser 4.10 m
Spannweite 29.00 m
Form Box + pan
Hersteller SPXS
Bus-Typ Starlink V2MD
Phasenstatus In Orbit
Besitzer/Staat SPXS/US

Große Konstellationen

Loading constellations...